OK,78,47,712,78,2014-10-01T01:40:00,0,28072039,187112
OK,78,47,712,78,2014-10-01T01:45:00,0,28072482,187112
OK,78,47,712,78,2014-10-01T01:50:00,0,28072931,187112
OK,78,47,712,78,2014-10-01T01:55:00,0,28073378,187112
OK,78,47,712,78,2014-10-01T02:05:00,0,28074144,187112
OK,78,47,712,78,2014-10-01T02:10:00,0,28074593,187112
OK,78,47,712,78,2014-10-01T02:15:00,0,28075033,187112
OK,78,47,712,78,2014-10-01T02:20:00,0,28075482,187112
OK,78,47,712,78,2014-10-01T02:25:00,0,28075931,187112
OK,95,38,712,95,2014-10-01T02:30:00,1,28076314,187112
OK,95,38,712,95,2014-10-01T02:35:00,1,28076763,187112
OK,95,38,712,95,2014-10-01T02:40:00,0,28077212,187112
OK,95,38,712,95,2014-10-01T02:45:00,0,28077661,187112
OK,95,38,712,95,2014-10-01T02:50:00,0,28078064,187112
OK,103,35,712,103,2014-10-01T02:55:00,1,28078513,187112
OK,103,35,712,103,2014-10-01T03:00:00,1,28078958,187112
OK,103,35,712,103,2014-10-01T03:05:00,0,28079406,187112
OK,87,42,712,87,2014-10-01T03:10:00,2,28079849,187112
OK,87,42,712,87,2014-10-01T03:20:00,0,28080632,187112
OK,87,42,712,87,2014-10-01T03:25:00,0,28081081,187112
OK,87,42,712,87,2014-10-01T03:30:00,0,28081530,187112
OK,87,42,712,87,2014-10-01T03:35:00,0,28081977,187112
OK,87,42,712,87,2014-10-01T03:40:00,0,28082426,187112
OK,53,69,712,53,2014-10-01T03:45:00,1,28082859,187112
OK,53,69,712,53,2014-10-01T03:50:00,1,28083291,187112
OK,94,39,712,94,2014-10-01T03:55:00,2,28083740,187112
OK,94,39,712,94,2014-10-01T04:00:00,2,28084189,187112
OK,94,39,712,94,2014-10-01T04:05:00,0,28084630,187112
OK,94,39,712,94,2014-10-01T04:10:00,0,28085055,187112
OK,94,39,712,94,2014-10-01T04:15:00,0,28085504,187112
OK,94,39,712,94,2014-10-01T04:20:00,0,28085949,187112
OK,160,23,712,160,2014-10-01T04:25:00,2,28086398,187112
OK,153,24,712,153,2014-10-01T04:30:00,3,28086840,187112
OK,162,22,712,162,2014-10-01T04:35:00,5,28087289,187112
OK,142,25,712,142,2014-10-01T04:40:00,4,28087734,187112
OK,99,37,712,99,2014-10-01T04:45:00,3,28088183,187112
OK,114,32,712,114,2014-10-01T04:50:00,6,28088607,187112
OK,122,30,712,122,2014-10-01T04:55:00,7,28089056,187112
OK,106,34,712,106,2014-10-01T05:00:00,5,28089486,187112
OK,181,20,712,181,2014-10-01T05:05:00,5,28089935,187112
OK,103,35,712,103,2014-10-01T05:10:00,9,28090384,187112
OK,98,37,712,98,2014-10-01T05:15:00,11,28090728,187112
OK,101,36,712,101,2014-10-01T05:20:00,6,28091177,187112
OK,190,19,712,190,2014-10-01T05:25:00,8,28091626,187112
OK,196,18,712,196,2014-10-01T05:30:00,6,28092043,187112
OK,221,16,712,221,2014-10-01T05:35:00,1,28092492,187112
OK,221,16,712,221,2014-10-01T05:40:00,4,28092936,187112
OK,219,16,712,219,2014-10-01T05:45:00,10,28093377,187112
OK,227,16,712,227,2014-10-01T05:50:00,11,28093808,187112
OK,269,13,712,269,2014-10-01T05:55:00,10,28094257,187112
OK,259,14,712,259,2014-10-01T06:00:00,6,28094668,187112
OK,100,36,712,100,2014-10-01T06:05:00,1,28095113,187112
OK,165,22,712,165,2014-10-01T06:10:00,5,28095560,187112
OK,166,22,712,166,2014-10-01T06:15:00,5,28096009,187112
OK,167,22,712,167,2014-10-01T06:20:00,5,28096422,187112
OK,168,21,712,168,2014-10-01T06:25:00,4,28096871,187112
OK,159,23,712,159,2014-10-01T06:30:00,5,28097305,187112
OK,140,26,712,140,2014-10-01T06:35:00,8,28097754,187112
OK,124,29,712,124,2014-10-01T06:40:00,5,28098203,187112
OK,124,29,712,124,2014-10-01T06:45:00,5,28098640,187112
OK,95,38,712,95,2014-10-01T06:50:00,2,28099084,187112
OK,88,41,712,88,2014-10-01T06:55:00,4,28099530,187112
OK,113,32,712,113,2014-10-01T07:00:00,6,28099875,187112
OK,173,21,712,173,2014-10-01T07:10:00,3,28100631,187112
OK,173,21,712,173,2014-10-01T07:15:00,6,28101078,187112
OK,161,22,712,161,2014-10-01T07:20:00,9,28101451,187112
OK,123,29,712,123,2014-10-01T07:25:00,10,28101900,187112
OK,140,26,712,140,2014-10-01T07:30:00,9,28102336,187112
OK,149,24,712,149,2014-10-01T07:35:00,5,28102785,187112
OK,121,30,712,121,2014-10-01T07:40:00,5,28103212,187112
OK,114,32,712,114,2014-10-01T07:45:00,4,28103659,187112
OK,143,25,712,143,2014-10-01T07:50:00,1,28104104,187112
OK,148,24,712,148,2014-10-01T07:55:00,8,28104549,187112
OK,100,36,712,100,2014-10-01T08:00:00,15,28104990,187112
OK,99,37,712,99,2014-10-01T08:05:00,10,28105435,187112
OK,143,25,712,143,2014-10-01T08:10:00,2,28105875,187112
OK,175,21,712,175,2014-10-01T08:15:00,4,28106324,187112
OK,134,27,712,134,2014-10-01T08:20:00,11,28106761,187112
OK,98,37,712,98,2014-10-01T08:25:00,9,28107167,187112
OK,95,38,712,95,2014-10-01T08:30:00,6,28107599,187112
OK,142,25,712,142,2014-10-01T08:35:00,6,28108048,187112
OK,110,33,712,110,2014-10-01T08:40:00,8,28108487,187112
OK,99,37,712,99,2014-10-01T08:45:00,4,28108936,187112
OK,146,25,712,146,2014-10-01T08:50:00,7,28109364,187112
OK,98,37,712,98,2014-10-01T09:00:00,11,28110156,187112
OK,118,31,712,118,2014-10-01T09:05:00,11,28110605,187112
OK,109,33,712,109,2014-10-01T09:10:00,5,28111028,187112
OK,103,35,712,103,2014-10-01T09:15:00,8,28111477,187112
OK,105,35,712,105,2014-10-01T09:20:00,4,28111906,187112
OK,176,20,712,176,2014-10-01T09:30:00,12,28112696,187112
OK,147,25,712,147,2014-10-01T09:35:00,8,28113145,187112
OK,155,23,712,155,2014-10-01T09:40:00,4,28113569,187112
OK,157,23,712,157,2014-10-01T09:45:00,2,28114018,187112
OK,171,21,712,171,2014-10-01T09:50:00,0,28114450,187112
OK,133,27,712,133,2014-10-01T10:00:00,3,28115253,187112
OK,130,28,712,130,2014-10-01T10:05:00,5,28115702,187112
OK,108,34,712,108,2014-10-01T10:10:00,6,28116114,187112
OK,110,33,712,110,2014-10-01T10:15:00,7,28116563,187112
OK,117,31,712,117,2014-10-01T10:20:00,8,28116971,187112
OK,129,28,712,129,2014-10-01T10:25:00,5,28117420,187112
OK,98,37,712,98,2014-10-01T10:30:00,4,28117845,187112
OK,132,27,712,132,2014-10-01T10:35:00,8,28118294,187112
OK,111,33,712,111,2014-10-01T10:40:00,10,28118739,187112
OK,110,33,712,110,2014-10-01T10:45:00,7,28119186,187112
OK,99,37,712,99,2014-10-01T10:50:00,4,28119630,187112
OK,96,38,712,96,2014-10-01T10:55:00,5,28120078,187112
OK,113,32,712,113,2014-10-01T11:00:00,6,28120526,187112
OK,103,35,712,103,2014-10-01T11:05:00,6,28120975,187112
OK,92,40,712,92,2014-10-01T11:10:00,2,28121358,187112
OK,136,27,712,136,2014-10-01T11:15:00,4,28121807,187112
OK,136,27,712,136,2014-10-01T11:20:00,4,28122245,187112
OK,136,27,712,136,2014-10-01T11:25:00,5,28122694,187112
OK,128,28,712,128,2014-10-01T11:30:00,11,28123135,187112
OK,114,32,712,114,2014-10-01T11:35:00,11,28123584,187112
OK,115,32,712,115,2014-10-01T11:40:00,10,28124016,187112
OK,87,42,712,87,2014-10-01T11:45:00,3,28124465,187112
OK,141,26,712,141,2014-10-01T11:50:00,5,28124867,187112
OK,146,25,712,146,2014-10-01T11:55:00,3,28125316,187112
OK,146,25,712,146,2014-10-01T12:00:00,1,28125745,187112
OK,86,42,712,86,2014-10-01T12:10:00,3,28126546,187112
OK,113,32,712,113,2014-10-01T12:15:00,4,28126995,187112
OK,148,24,712,148,2014-10-01T12:20:00,3,28127444,187112
OK,136,27,712,136,2014-10-01T12:25:00,7,28127893,187112
OK,136,27,712,136,2014-10-01T12:30:00,5,28128321,187112
OK,283,13,712,283,2014-10-01T12:35:00,10,28128770,187112
OK,293,12,712,293,2014-10-01T12:40:00,14,28129205,187112
OK,306,12,712,306,2014-10-01T12:45:00,7,28129654,187112
OK,371,9,712,371,2014-10-01T12:50:00,11,28130088,187112
OK,284,12,712,284,2014-10-01T12:55:00,14,28130537,187112
OK,255,14,712,255,2014-10-01T13:00:00,4,28130965,187112
OK,434,8,712,434,2014-10-01T13:05:00,8,28131414,187112
OK,353,10,712,353,2014-10-01T13:10:00,20,28131851,187112
OK,285,12,712,285,2014-10-01T13:15:00,13,28132300,187112
OK,257,14,712,257,2014-10-01T13:20:00,10,28132738,187112
OK,268,13,712,268,2014-10-01T13:25:00,14,28133185,187112
OK,210,17,712,210,2014-10-01T13:30:00,13,28133623,187112
OK,185,19,712,185,2014-10-01T13:35:00,8,28134072,187112
OK,304,12,712,304,2014-10-01T13:40:00,7,28134511,187112
OK,273,13,712,273,2014-10-01T13:45:00,11,28134960,187112
OK,257,14,712,257,2014-10-01T13:50:00,10,28135379,187112
OK,262,14,712,262,2014-10-01T13:55:00,7,28135828,187112
OK,196,18,712,196,2014-10-01T14:00:00,7,28136265,187112
OK,205,17,712,205,2014-10-01T14:05:00,7,28136714,187112
OK,193,19,712,193,2014-10-01T14:10:00,9,28137154,187112
OK,138,26,712,138,2014-10-01T14:15:00,7,28137603,187112
OK,165,22,712,165,2014-10-01T14:20:00,13,28138037,187112
OK,188,19,712,188,2014-10-01T14:25:00,11,28138486,187112
OK,190,19,712,190,2014-10-01T14:30:00,10,28138914,187112
OK,197,18,712,197,2014-10-01T14:35:00,6,28139363,187112
OK,133,27,712,133,2014-10-01T14:40:00,6,28139774,187112
OK,143,25,712,143,2014-10-01T14:45:00,11,28140223,187112
OK,175,21,712,175,2014-10-01T14:50:00,10,28140665,187112
OK,265,13,712,265,2014-10-01T14:55:00,11,28141113,187112
OK,324,11,712,324,2014-10-01T15:00:00,12,28141540,187112
OK,325,11,712,325,2014-10-01T15:05:00,7,28141989,187112
OK,225,16,712,225,2014-10-01T15:10:00,9,28142417,187112
OK,208,17,712,208,2014-10-01T15:15:00,9,28142866,187112
OK,174,21,712,174,2014-10-01T15:20:00,8,28143293,187112
OK,183,20,712,183,2014-10-01T15:25:00,8,28143742,187112
OK,115,32,712,115,2014-10-01T15:30:00,7,28144190,187112
OK,104,35,712,104,2014-10-01T15:35:00,7,28144639,187112
OK,104,35,712,104,2014-10-01T15:40:00,3,28145060,187112
OK,86,42,712,86,2014-10-01T15:45:00,7,28145474,187112
OK,94,39,712,94,2014-10-01T15:50:00,8,28145923,187112
OK,114,32,712,114,2014-10-01T15:55:00,3,28146372,187112
OK,150,24,712,150,2014-10-01T16:00:00,5,28146821,187112
OK,180,20,712,180,2014-10-01T16:05:00,7,28147229,187112
OK,123,29,712,123,2014-10-01T16:10:00,8,28147673,187112
OK,111,33,712,111,2014-10-01T16:15:00,6,28148122,187112
OK,143,25,712,143,2014-10-01T16:20:00,4,28148523,187112
OK,93,39,712,93,2014-10-01T16:25:00,5,28148972,187112
OK,102,36,712,102,2014-10-01T16:30:00,5,28149411,187112
OK,139,26,712,139,2014-10-01T16:35:00,7,28149860,187112
OK,122,30,712,122,2014-10-01T16:40:00,6,28150286,187112
OK,119,30,712,119,2014-10-01T16:45:00,3,28150735,187112
OK,143,25,712,143,2014-10-01T16:50:00,3,28151153,187112
OK,134,27,712,134,2014-10-01T16:55:00,2,28151602,187112
OK,129,28,712,129,2014-10-01T17:05:00,2,28152051,187112
OK,130,28,712,130,2014-10-01T17:10:00,2,28152500,187112
OK,172,21,712,172,2014-10-01T17:15:00,2,28152946,187112
OK,213,17,712,213,2014-10-01T17:20:00,3,28153393,187112
OK,201,18,712,201,2014-10-01T17:25:00,0,28153842,187112
OK,107,34,712,107,2014-10-01T17:30:00,2,28154252,187112
OK,110,33,712,110,2014-10-01T17:35:00,5,28154701,187112
OK,110,33,712,110,2014-10-01T17:40:00,3,28155143,187112
OK,121,30,712,121,2014-10-01T17:45:00,1,28155591,187112
OK,126,29,712,126,2014-10-01T17:50:00,1,28156009,187112
OK,74,49,712,74,2014-10-01T17:55:00,1,28156458,187112
OK,74,49,712,74,2014-10-01T18:00:00,1,28156906,187112
OK,74,49,712,74,2014-10-01T18:05:00,0,28157345,187112
OK,74,49,712,74,2014-10-01T18:10:00,0,28157775,187112
OK,112,32,712,112,2014-10-01T18:15:00,2,28158223,187112
OK,131,28,712,131,2014-10-01T18:20:00,5,28158667,187112
OK,131,28,712,131,2014-10-01T18:25:00,3,28159112,187112
OK,113,32,712,113,2014-10-01T18:35:00,1,28159894,187112
OK,113,32,712,113,2014-10-01T18:40:00,0,28160343,187112
OK,152,24,712,152,2014-10-01T18:45:00,1,28160792,187112
OK,152,24,712,152,2014-10-01T18:50:00,1,28161230,187112
OK,109,33,712,109,2014-10-01T18:55:00,1,28161679,187112
OK,109,33,712,109,2014-10-01T19:00:00,3,28162096,187112
OK,128,28,712,128,2014-10-01T19:05:00,1,28162545,187112
OK,124,29,712,124,2014-10-01T19:10:00,3,28162939,187112
OK,112,32,712,112,2014-10-01T19:15:00,5,28163378,187112
OK,106,34,712,106,2014-10-01T19:20:00,2,28163826,187112
OK,67,54,712,67,2014-10-01T19:25:00,3,28164275,187112
OK,67,54,712,67,2014-10-01T19:30:00,0,28164706,187112
OK,67,54,712,67,2014-10-01T19:35:00,0,28165155,187112
OK,67,54,712,67,2014-10-01T19:40:00,0,28165580,187112
OK,67,54,712,67,2014-10-01T19:45:00,0,28166028,187112
OK,106,34,712,106,2014-10-01T19:55:00,1,28166831,187112
OK,132,27,712,132,2014-10-01T20:00:00,3,28167280,187112
OK,132,27,712,132,2014-10-01T20:05:00,6,28167708,187112
OK,113,32,712,113,2014-10-01T20:10:00,6,28168142,187112
OK,126,29,712,126,2014-10-01T20:15:00,4,28168591,187112
OK,130,28,712,130,2014-10-01T20:20:00,0,28169036,187112
OK,75,49,712,75,2014-10-01T20:25:00,2,28169485,187112
OK,75,49,712,75,2014-10-01T20:30:00,2,28169933,187112
OK,131,28,712,131,2014-10-01T20:35:00,1,28170359,187112
OK,131,28,712,131,2014-10-01T20:40:00,1,28170804,187112
OK,131,28,712,131,2014-10-01T20:45:00,0,28171252,187112
OK,131,28,712,131,2014-10-01T20:50:00,0,28171689,187112
OK,122,30,712,122,2014-10-01T20:55:00,1,28172135,187112
OK,122,30,712,122,2014-10-01T21:00:00,1,28172583,187112
OK,107,34,712,107,2014-10-01T21:05:00,1,28173029,187112
OK,107,34,712,107,2014-10-01T21:10:00,1,28173475,187112
OK,107,34,712,107,2014-10-01T21:15:00,0,28173923,187112
OK,107,34,712,107,2014-10-01T21:20:00,0,28174365,187112
OK,107,34,712,107,2014-10-01T21:25:00,0,28174814,187112
OK,76,48,712,76,2014-10-01T21:35:00,1,28175636,187112
OK,76,48,712,76,2014-10-01T21:40:00,0,28176085,187112
OK,76,48,712,76,2014-10-01T21:45:00,0,28176534,187112
OK,76,48,712,76,2014-10-01T21:50:00,0,28176983,187112
OK,78,47,712,78,2014-10-01T21:55:00,1,28177339,187112
OK,78,47,712,78,2014-10-01T22:00:00,0,28177779,187112
OK,78,47,712,78,2014-10-01T22:05:00,0,28178225,187112
OK,78,47,712,78,2014-10-01T22:10:00,0,28178674,187112
OK,78,47,712,78,2014-10-01T22:15:00,0,28179121,187112
OK,78,47,712,78,2014-10-01T22:20:00,0,28179555,187112
OK,78,47,712,78,2014-10-01T22:25:00,0,28179998,187112
OK,93,39,712,93,2014-10-01T22:30:00,2,28180444,187112
OK,93,39,712,93,2014-10-01T22:35:00,0,28180843,187112
OK,97,37,712,97,2014-10-01T22:45:00,1,28181716,187112
OK,97,37,712,97,2014-10-01T22:50:00,0,28182164,187112
OK,97,37,712,97,2014-10-01T22:55:00,0,28182611,187112
OK,97,37,712,97,2014-10-01T23:00:00,0,28183059,187112
OK,97,37,712,97,2014-10-01T23:05:00,0,28183470,187112
OK,97,37,712,97,2014-10-01T23:15:00,0,28184355,187112
OK,97,37,712,97,2014-10-01T23:20:00,0,28184802,187112
OK,97,37,712,97,2014-10-01T23:25:00,0,28185239,187112
OK,97,37,712,97,2014-10-01T23:30:00,0,28186062,187112
OK,97,37,712,97,2014-10-01T23:35:00,0,28186510,187112
OK,97,37,712,97,2014-10-01T23:40:00,0,28186915,187112
OK,97,37,712,97,2014-10-01T23:45:00,0,28187350,187112
OK,97,37,712,97,2014-10-01T23:50:00,0,28187799,187112
OK,97,37,712,97,2014-10-01T23:55:00,0,28188240,187112
OK,97,37,712,97,2014-10-02T00:00:00,0,28188676,187112
OK,97,37,712,97,2014-10-02T00:10:00,0,28189125,187112
OK,97,37,712,97,2014-10-02T00:15:00,0,28189574,187112
OK,97,37,712,97,2014-10-02T00:20:00,0,28189996,187112
OK,97,37,712,97,2014-10-02T00:30:00,0,28190798,187112
OK,97,37,712,97,2014-10-02T00:35:00,0,28191247,187112
OK,97,37,712,97,2014-10-02T00:45:00,0,28192002,187112
OK,97,37,712,97,2014-10-02T00:50:00,0,28192451,187112
OK,97,37,712,97,2014-10-02T00:55:00,0,28192884,187112
OK,97,37,712,97,2014-10-02T01:05:00,0,28193695,187112
OK,97,37,712,97,2014-10-02T01:10:00,0,28194144,187112
OK,97,37,712,97,2014-10-02T01:15:00,0,28194593,187112
OK,97,37,712,97,2014-10-02T01:25:00,0,28195278,187112
OK,97,37,712,97,2014-10-02T01:30:00,0,28195727,187112
OK,97,37,712,97,2014-10-02T01:35:00,0,28196176,187112
OK,97,37,712,97,2014-10-02T01:40:00,0,28196460,187112
OK,97,37,712,97,2014-10-02T01:45:00,0,28196909,187112
OK,97,37,712,97,2014-10-02T01:50:00,0,28197332,187112
OK,97,37,712,97,2014-10-02T01:55:00,0,28197781,187112
OK,97,37,712,97,2014-10-02T02:00:00,0,28198229,187112
OK,97,37,712,97,2014-10-02T02:05:00,0,28198677,187112
OK,97,37,712,97,2014-10-02T02:10:00,0,28199126,187112
OK,97,37,712,97,2014-10-02T02:15:00,0,28199498,187112
OK,97,37,712,97,2014-10-02T02:20:00,0,28199940,187112
OK,97,37,712,97,2014-10-02T02:25:00,0,28200382,187112
OK,97,37,712,97,2014-10-02T02:30:00,0,28200825,187112
OK,97,37,712,97,2014-10-02T02:35:00,0,28201274,187112
OK,97,37,712,97,2014-10-02T02:45:00,0,28201705,187112
OK,97,37,712,97,2014-10-02T02:50:00,0,28202154,187112
OK,97,37,712,97,2014-10-02T02:55:00,0,28202603,187112
OK,97,37,712,97,2014-10-02T03:00:00,0,28203045,187112
OK,97,37,712,97,2014-10-02T03:05:00,0,28203493,187112
OK,97,37,712,97,2014-10-02T03:10:00,0,28203928,187112
OK,96,38,712,96,2014-10-02T03:30:00,0,28204377,187112
OK,96,38,712,96,2014-10-02T03:35:00,0,28204826,187112
OK,96,38,712,96,2014-10-02T03:40:00,0,28205275,187112
OK,73,50,712,73,2014-10-02T03:45:00,0,28205703,187112
OK,73,50,712,73,2014-10-02T03:50:00,0,28206130,187112
OK,73,50,712,73,2014-10-02T03:55:00,0,28206533,187112
OK,73,50,712,73,2014-10-02T04:00:00,0,28206982,187112
OK,73,50,712,73,2014-10-02T04:05:00,0,28207431,187112
OK,99,37,712,99,2014-10-02T04:10:00,2,28207850,187112
OK,110,33,712,110,2014-10-02T04:15:00,0,28208299,187112
OK,101,36,712,101,2014-10-02T04:20:00,2,28208726,187112
OK,101,36,712,101,2014-10-02T04:25:00,0,28209175,187112
OK,94,39,712,94,2014-10-02T04:30:00,4,28209613,187112
OK,89,41,712,89,2014-10-02T04:35:00,1,28210062,187112
OK,100,36,712,100,2014-10-02T04:40:00,1,28210485,187112
OK,100,36,712,100,2014-10-02T04:45:00,0,28210934,187112
OK,100,36,712,100,2014-10-02T04:50:00,0,28211359,187112
OK,183,20,712,183,2014-10-02T05:00:00,1,28212181,187112
OK,164,22,712,164,2014-10-02T05:05:00,7,28212630,187112
OK,158,23,712,158,2014-10-02T05:10:00,0,28213059,187112
OK,95,38,712,95,2014-10-02T05:15:00,4,28213508,187112
OK,97,37,712,97,2014-10-02T05:20:00,2,28213946,187112
OK,162,22,712,162,2014-10-02T05:25:00,3,28214395,187112
OK,172,21,712,172,2014-10-02T05:30:00,0,28214808,187112
OK,172,21,712,172,2014-10-02T05:35:00,0,28215257,187112
OK,259,14,712,259,2014-10-02T05:40:00,2,28215673,187112
OK,259,14,712,259,2014-10-02T05:45:00,2,28216122,187112
OK,259,14,712,259,2014-10-02T05:50:00,0,28216461,187112
OK,256,14,712,256,2014-10-02T05:55:00,7,28216901,187112
OK,220,16,712,220,2014-10-02T06:00:00,4,28217348,187112
OK,141,26,712,141,2014-10-02T06:05:00,8,28217797,187112
OK,137,26,712,137,2014-10-02T06:10:00,0,28218236,187112
OK,93,39,712,93,2014-10-02T06:15:00,12,28218685,187112
OK,96,38,712,96,2014-10-02T06:20:00,11,28219105,187112
OK,143,25,712,143,2014-10-02T06:30:00,8,28219927,187112
OK,175,21,712,175,2014-10-02T06:35:00,8,28220376,187112
OK,185,19,712,185,2014-10-02T06:40:00,11,28220810,187112
OK,190,19,712,190,2014-10-02T06:45:00,7,28221259,187112
OK,128,28,712,128,2014-10-02T07:00:00,4,28221926,187112
OK,110,33,712,110,2014-10-02T07:05:00,2,28222071,187112
OK,94,39,712,94,2014-10-02T07:10:00,3,28222520,187112
OK,90,40,712,90,2014-10-02T07:15:00,2,28222969,187112
OK,94,39,712,94,2014-10-02T07:20:00,0,28223400,187112
OK,95,38,712,95,2014-10-02T07:25:00,4,28223835,187112
OK,133,27,712,133,2014-10-02T07:35:00,3,28224638,187112
OK,133,27,712,133,2014-10-02T07:40:00,1,28225087,187112
OK,133,27,712,133,2014-10-02T07:45:00,0,28225496,187112
OK,123,29,712,123,2014-10-02T07:50:00,7,28225858,187112
OK,129,28,712,129,2014-10-02T07:55:00,6,28226307,187112
OK,167,22,712,167,2014-10-02T08:00:00,1,28226748,187112
OK,191,19,712,191,2014-10-02T08:05:00,4,28227197,187112
OK,123,29,712,123,2014-10-02T08:10:00,0,28227612,187112
OK,130,28,712,130,2014-10-02T08:15:00,4,28228055,187112
OK,101,36,712,101,2014-10-02T08:20:00,2,28228420,187112
OK,156,23,712,156,2014-10-02T08:25:00,4,28228869,187112
OK,80,46,712,80,2014-10-02T08:30:00,0,28229279,187112
OK,132,27,712,132,2014-10-02T08:40:00,1,28230078,187112
OK,132,27,712,132,2014-10-02T08:45:00,0,28230527,187112
OK,145,25,712,145,2014-10-02T08:50:00,5,28230893,187112
OK,157,23,712,157,2014-10-02T08:55:00,1,28231340,187112
OK,108,34,712,108,2014-10-02T09:00:00,4,28231765,187112
OK,131,28,712,131,2014-10-02T09:15:00,7,28232556,187112
OK,117,31,712,117,2014-10-02T09:20:00,3,28233005,187112
OK,110,33,712,110,2014-10-02T09:25:00,5,28233454,187112
OK,113,32,712,113,2014-10-02T09:30:00,4,28233878,187112
OK,157,23,712,157,2014-10-02T09:40:00,5,28234660,187112
OK,120,30,712,120,2014-10-02T09:45:00,4,28235109,187112
OK,120,30,712,120,2014-10-02T09:50:00,0,28235536,187112
OK,118,31,712,118,2014-10-02T09:55:00,6,28235985,187112
OK,158,23,712,158,2014-10-02T10:00:00,3,28236428,187112
OK,158,23,712,158,2014-10-02T10:05:00,0,28236875,187112
OK,107,34,712,107,2014-10-02T10:10:00,7,28237277,187112
OK,116,31,712,116,2014-10-02T10:15:00,4,28237725,187112
OK,155,23,712,155,2014-10-02T10:20:00,5,28238174,187112
OK,204,18,712,204,2014-10-02T10:25:00,1,28238621,187112
OK,204,18,712,204,2014-10-02T10:30:00,0,28239062,187112
OK,102,36,712,102,2014-10-02T10:35:00,6,28239511,187112
OK,115,32,712,115,2014-10-02T10:40:00,6,28239941,187112
OK,147,25,712,147,2014-10-02T10:45:00,8,28240390,187112
OK,148,24,712,148,2014-10-02T10:50:00,5,28240834,187112
OK,107,34,712,107,2014-10-02T10:55:00,3,28241283,187112
OK,107,34,712,107,2014-10-02T11:00:00,1,28241715,187112
OK,107,34,712,107,2014-10-02T11:05:00,0,28242163,187112
OK,130,28,712,130,2014-10-02T11:10:00,10,28242559,187112
OK,99,37,712,99,2014-10-02T11:15:00,4,28243008,187112
OK,108,34,712,108,2014-10-02T11:20:00,5,28243457,187112
OK,129,28,712,129,2014-10-02T11:25:00,2,28243782,187112
OK,108,34,712,108,2014-10-02T11:30:00,0,28244220,187112
OK,157,23,712,157,2014-10-02T11:35:00,4,28244649,187112
OK,116,31,712,116,2014-10-02T11:40:00,1,28245098,187112
OK,116,31,712,116,2014-10-02T11:45:00,0,28245547,187112
OK,136,27,712,136,2014-10-02T11:50:00,15,28245953,187112
OK,192,19,712,192,2014-10-02T11:55:00,11,28246402,187112
OK,243,15,712,243,2014-10-02T12:00:00,7,28246839,187112
OK,203,18,712,203,2014-10-02T12:05:00,4,28247287,187112
OK,203,18,712,203,2014-10-02T12:10:00,0,28247734,187112
OK,155,23,712,155,2014-10-02T12:15:00,6,28248164,187112
OK,167,22,712,167,2014-10-02T12:20:00,2,28248613,187112
OK,177,20,712,177,2014-10-02T12:25:00,10,28249060,187112
OK,159,23,712,159,2014-10-02T12:30:00,4,28249488,187112
OK,107,34,712,107,2014-10-02T12:35:00,9,28249932,187112
OK,114,32,712,114,2014-10-02T12:40:00,5,28250316,187112
OK,131,28,712,131,2014-10-02T12:45:00,9,28251080,187112
OK,277,13,712,277,2014-10-02T13:20:00,11,28251609,187112
OK,428,8,712,428,2014-10-02T13:30:00,10,28252074,187112
OK,500,7,712,500,2014-10-02T13:35:00,4,28252211,187112
OK,401,9,712,401,2014-10-02T13:40:00,0,28252658,187112
OK,420,8,712,420,2014-10-02T13:50:00,11,28253517,187112
OK,308,11,712,308,2014-10-02T13:55:00,12,28253966,187112
OK,237,15,712,237,2014-10-02T14:10:00,12,28254697,187112
OK,271,13,712,271,2014-10-02T14:15:00,12,28254820,187112
OK,322,11,712,322,2014-10-02T14:20:00,14,28255269,187112
OK,350,10,712,350,2014-10-02T14:25:00,5,28255718,187112
OK,286,12,712,286,2014-10-02T14:30:00,10,28256146,187112
OK,189,19,712,189,2014-10-02T14:35:00,2,28256595,187112
OK,135,27,712,135,2014-10-02T14:40:00,2,28257023,187112
OK,201,18,712,201,2014-10-02T14:45:00,3,28257472,187112
OK,197,18,712,197,2014-10-02T14:50:00,11,28257913,187112
OK,138,26,712,138,2014-10-02T14:55:00,8,28258361,187112
OK,173,21,712,173,2014-10-02T15:00:00,7,28258794,187112
OK,144,25,712,144,2014-10-02T15:05:00,6,28259240,187112
OK,133,27,712,133,2014-10-02T15:10:00,4,28259688,187112
OK,106,34,712,106,2014-10-02T15:15:00,11,28260136,187112
OK,106,34,712,106,2014-10-02T15:20:00,8,28260569,187112
OK,159,23,712,159,2014-10-02T15:25:00,9,28261016,187112
OK,121,30,712,121,2014-10-02T15:35:00,7,28261821,187112
OK,118,31,712,118,2014-10-02T15:40:00,3,28262270,187112
OK,137,26,712,137,2014-10-02T15:45:00,4,28262717,187112
OK,59,62,712,59,2014-10-02T15:50:00,0,28263163,187112
OK,59,62,712,59,2014-10-02T15:55:00,0,28263601,187112
OK,100,36,712,100,2014-10-02T16:05:00,3,28264444,187112
OK,107,34,712,107,2014-10-02T16:10:00,5,28264893,187112
OK,87,42,712,87,2014-10-02T16:15:00,2,28265331,187112
OK,103,35,712,103,2014-10-02T16:25:00,5,28266167,187112
OK,126,29,712,126,2014-10-02T16:30:00,2,28266616,187112
OK,140,26,712,140,2014-10-02T16:35:00,1,28267388,187112
OK,153,24,712,153,2014-10-02T16:45:00,1,28267837,187112